Find Yaogan 30 hao 02 zu 01 xing

NORAD ID: 43028 Int'l Des: 2017-075 Owner: ZLZB Country: CN Constellation: yaogan operational
LEOCIRCULAR

Live Position

Loading 3D Globe...

About Yaogan 30 hao 02 zu 01 xing

Description loading...

Upcoming Passes

Passes for default location (London). Set your location on the main map for personalized predictions.

Altitude History

Loading altitude history...

Two-Line Element Set

1 43028U 17075A 26106.95582513 .00001931 00000-0 14463-3 0 9995
2 43028 34.9949 283.7227 0001115 142.7651 217.3135 15.02506189458031
Epoch: Apr 16, 2026 • Age: 13 hours

Current Status

Altitude 559.4 km
Velocity 7.58 km/s
Sub-Earth Point -3.88°S, 105.67°W
Launch Date Nov 24, 2017
Age 8.3 years
Type military

Technical Details

Classification Payload
Mass 500.00 kg
Dry Mass 500.00 kg
Total Mass 500.00 kg
Length 0.50 m
Diameter 0.50 m
Span 1.00 m
Shape Box + 2 Pan
Manufacturer SECM
Phase Status In Orbit
Owner/State ZLZB/CN

Most Searched